Station Historical Data
Daily Summary for June 8, 2011 Units:  English    Metric   Both
« Previous Day
Next Day »
Daily Weekly Monthly Yearly Custom
  High: Low: Average:
Temperature: 92.6 °F 70.2 °F 81.8 °F
Dew Point: 74.1 °F 65.8 °F 69.2 °F
Humidity: 87% 43% 68%
Wind Speed: 11.0mph 0.0mph 2.6mph
Wind Gust: 13.0mph - -
Wind- - SSE
Pressure: 29.99 in 29.90 in -
Precipitation: 0.00 in    
Historical Graphs
 
 
Tabular Data for June 8, 2011
Time Temperature Dew Point Pressure Wind Wind Speed Wind Gust Humidity Rainfall Rate (Hourly) Conditions
00:00 79.0 °F 68.8 °F 29.94 in ESE 1.0 mph 2.0 mph 71% 0.00 in
00:01 78.9 °F 68.7 °F 29.94 in ESE 1.0 mph 2.0 mph 71% 0.00 in
00:06 78.8 °F 68.6 °F 29.94 in East 1.0 mph 2.0 mph 71% 0.00 in
00:11 78.6 °F 68.4 °F 29.94 in ESE 2.0 mph 2.0 mph 71% 0.00 in
00:16 78.6 °F 68.4 °F 29.93 in East 2.0 mph 2.0 mph 71% 0.00 in
00:21 78.5 °F 68.3 °F 29.93 in ESE 2.0 mph 3.0 mph 71% 0.00 in
00:26 78.5 °F 68.3 °F 29.93 in ESE 3.0 mph 3.0 mph 71% 0.00 in
00:27 78.5 °F 68.3 °F 29.93 in ESE 2.0 mph 3.0 mph 71% 0.00 in
00:28 78.5 °F 68.3 °F 29.93 in ESE 3.0 mph 3.0 mph 71% 0.00 in
00:32 78.4 °F 68.2 °F 29.93 in ESE 2.0 mph 2.0 mph 71% 0.00 in
00:33 78.3 °F 68.1 °F 29.93 in ESE 2.0 mph 2.0 mph 71% 0.00 in
00:34 78.2 °F 68.4 °F 29.93 in ESE 2.0 mph 2.0 mph 72% 0.00 in
00:38 78.1 °F 67.9 °F 29.93 in SE 1.0 mph 2.0 mph 71% 0.00 in
00:39 78.1 °F 67.9 °F 29.93 in ESE 1.0 mph 2.0 mph 71% 0.00 in
00:44 78.2 °F 68.0 °F 29.93 in ESE 2.0 mph 2.0 mph 71% 0.00 in
00:46 78.2 °F 68.4 °F 29.93 in ESE 2.0 mph 2.0 mph 72% 0.00 in
00:51 78.1 °F 68.3 °F 29.93 in East 2.0 mph 2.0 mph 72% 0.00 in
00:56 77.9 °F 68.6 °F 29.93 in ESE 2.0 mph 3.0 mph 73% 0.00 in
01:01 77.6 °F 68.7 °F 29.93 in ESE 2.0 mph 3.0 mph 74% 0.00 in
01:06 77.8 °F 68.5 °F 29.93 in ESE 3.0 mph 3.0 mph 73% 0.00 in
01:11 77.7 °F 68.4 °F 29.93 in East 3.0 mph 3.0 mph 73% 0.00 in
01:16 77.8 °F 68.9 °F 29.93 in East 2.0 mph 3.0 mph 74% 0.00 in
01:21 77.7 °F 68.8 °F 29.93 in ESE 2.0 mph 2.0 mph 74% 0.00 in
01:22 77.6 °F 68.7 °F 29.93 in East 2.0 mph 2.0 mph 74% 0.00 in
01:26 77.5 °F 68.6 °F 29.93 in ESE 2.0 mph 2.0 mph 74% 0.00 in
01:27 77.5 °F 68.6 °F 29.93 in ESE 2.0 mph 2.0 mph 74% 0.00 in
01:28 77.5 °F 68.6 °F 29.93 in ESE 2.0 mph 2.0 mph 74% 0.00 in
01:32 77.5 °F 68.6 °F 29.93 in ESE 2.0 mph 2.0 mph 74% 0.00 in
01:35 77.5 °F 68.6 °F 29.93 in ESE 2.0 mph 2.0 mph 74% 0.00 in
01:37 77.4 °F 68.5 °F 29.92 in ESE 2.0 mph 2.0 mph 74% 0.00 in
01:41 77.4 °F 68.5 °F 29.92 in ESE 2.0 mph 3.0 mph 74% 0.00 in
01:42 77.4 °F 68.5 °F 29.92 in ESE 3.0 mph 3.0 mph 74% 0.00 in
01:46 77.4 °F 68.5 °F 29.92 in East 3.0 mph 3.0 mph 74% 0.00 in
01:47 77.4 °F 68.5 °F 29.92 in ESE 2.0 mph 3.0 mph 74% 0.00 in
01:52 77.4 °F 68.5 °F 29.92 in ESE 3.0 mph 3.0 mph 74% 0.00 in
01:57 77.4 °F 68.5 °F 29.92 in ESE 3.0 mph 3.0 mph 74% 0.00 in
02:02 77.4 °F 68.1 °F 29.92 in ESE 4.0 mph 4.0 mph 73% 0.00 in
02:07 77.4 °F 68.1 °F 29.92 in ESE 3.0 mph 4.0 mph 73% 0.00 in
02:12 77.3 °F 68.0 °F 29.92 in ESE 3.0 mph 4.0 mph 73% 0.00 in
02:17 77.2 °F 67.9 °F 29.91 in ESE 3.0 mph 4.0 mph 73% 0.00 in
02:22 77.0 °F 68.1 °F 29.91 in ESE 2.0 mph 3.0 mph 74% 0.00 in
02:23 77.0 °F 68.1 °F 29.91 in ESE 2.0 mph 3.0 mph 74% 0.00 in
02:27 76.7 °F 68.2 °F 29.91 in ESE 3.0 mph 3.0 mph 75% 0.00 in
02:29 76.6 °F 68.1 °F 29.91 in ESE 3.0 mph 4.0 mph 75% 0.00 in
02:33 76.4 °F 67.9 °F 29.91 in ESE 3.0 mph 4.0 mph 75% 0.00 in
02:34 76.4 °F 67.9 °F 29.91 in SE 2.0 mph 3.0 mph 75% 0.00 in
02:37 76.4 °F 67.9 °F 29.91 in ESE 3.0 mph 3.0 mph 75% 0.00 in
02:42 76.4 °F 67.9 °F 29.91 in ESE 2.0 mph 3.0 mph 75% 0.00 in
02:47 75.9 °F 67.8 °F 29.90 in SE 2.0 mph 3.0 mph 76% 0.00 in
02:52 76.0 °F 67.9 °F 29.90 in ESE 3.0 mph 4.0 mph 76% 0.00 in
02:53 75.9 °F 67.8 °F 29.90 in ESE 3.0 mph 4.0 mph 76% 0.00 in
02:58 76.1 °F 68.0 °F 29.90 in ESE 3.0 mph 4.0 mph 76% 0.00 in
03:03 75.8 °F 68.1 °F 29.90 in ESE 4.0 mph 4.0 mph 77% 0.00 in
03:08 75.4 °F 68.1 °F 29.90 in ESE 2.0 mph 4.0 mph 78% 0.00 in
03:13 75.1 °F 68.2 °F 29.90 in ESE 3.0 mph 3.0 mph 79% 0.00 in
03:18 75.1 °F 68.2 °F 29.91 in ESE 4.0 mph 4.0 mph 79% 0.00 in
03:19 75.1 °F 68.2 °F 29.90 in ESE 4.0 mph 4.0 mph 79% 0.00 in
03:24 74.8 °F 67.9 °F 29.91 in ESE 3.0 mph 4.0 mph 79% 0.00 in
03:25 74.8 °F 67.9 °F 29.91 in ESE 3.0 mph 4.0 mph 79% 0.00 in
03:30 74.6 °F 68.0 °F 29.91 in ESE 4.0 mph 5.0 mph 80% 0.00 in
03:32 74.6 °F 68.0 °F 29.91 in ESE 3.0 mph 4.0 mph 80% 0.00 in
03:35 74.5 °F 67.9 °F 29.91 in ESE 3.0 mph 4.0 mph 80% 0.00 in
03:37 74.4 °F 67.8 °F 29.91 in ESE 3.0 mph 4.0 mph 80% 0.00 in
03:40 74.3 °F 68.1 °F 29.90 in ESE 3.0 mph 4.0 mph 81% 0.00 in
03:43 74.2 °F 68.0 °F 29.91 in ESE 3.0 mph 4.0 mph 81% 0.00 in
03:45 74.2 °F 68.0 °F 29.90 in ESE 4.0 mph 4.0 mph 81% 0.00 in
03:50 74.1 °F 67.9 °F 29.90 in ESE 3.0 mph 5.0 mph 81% 0.00 in
03:55 74.1 °F 67.9 °F 29.90 in East 4.0 mph 5.0 mph 81% 0.00 in
04:00 74.1 °F 67.9 °F 29.90 in ESE 4.0 mph 5.0 mph 81% 0.00 in
04:01 74.1 °F 67.9 °F 29.90 in East 3.0 mph 5.0 mph 81% 0.00 in
04:06 74.0 °F 67.8 °F 29.90 in ESE 4.0 mph 5.0 mph 81% 0.00 in
04:11 74.0 °F 67.4 °F 29.90 in ESE 3.0 mph 4.0 mph 80% 0.00 in
04:16 74.0 °F 67.4 °F 29.90 in East 3.0 mph 4.0 mph 80% 0.00 in
04:21 74.0 °F 67.4 °F 29.90 in East 3.0 mph 5.0 mph 80% 0.00 in
04:22 73.9 °F 67.3 °F 29.90 in East 3.0 mph 5.0 mph 80% 0.00 in
04:27 73.7 °F 67.5 °F 29.91 in ESE 4.0 mph 4.0 mph 81% 0.00 in
04:32 73.5 °F 67.0 °F 29.91 in ESE 3.0 mph 4.0 mph 80% 0.00 in
04:34 73.6 °F 67.1 °F 29.91 in ESE 4.0 mph 4.0 mph 80% 0.00 in
04:38 73.6 °F 67.1 °F 29.91 in East 4.0 mph 4.0 mph 80% 0.00 in
04:39 73.6 °F 67.1 °F 29.91 in East 3.0 mph 4.0 mph 80% 0.00 in
04:43 73.4 °F 66.9 °F 29.91 in ESE 4.0 mph 4.0 mph 80% 0.00 in
04:48 73.3 °F 67.1 °F 29.91 in East 3.0 mph 3.0 mph 81% 0.00 in
04:53 73.1 °F 66.9 °F 29.91 in ESE 3.0 mph 4.0 mph 81% 0.00 in
04:58 73.0 °F 66.8 °F 29.91 in ESE 2.0 mph 2.0 mph 81% 0.00 in
05:03 72.7 °F 66.9 °F 29.91 in ESE 1.0 mph 2.0 mph 82% 0.00 in
05:08 72.4 °F 66.6 °F 29.92 in SE 1.0 mph 1.0 mph 82% 0.00 in
05:13 72.3 °F 66.5 °F 29.91 in East 1.0 mph 3.0 mph 82% 0.00 in
05:18 72.4 °F 66.6 °F 29.91 in SE 1.0 mph 2.0 mph 82% 0.00 in
05:21 72.3 °F 66.5 °F 29.92 in SE 1.0 mph 1.0 mph 82% 0.00 in
05:23 72.1 °F 66.7 °F 29.91 in East 1.0 mph 2.0 mph 83% 0.00 in
05:26 72.2 °F 66.8 °F 29.91 in East 1.0 mph 2.0 mph 83% 0.00 in
05:28 72.2 °F 66.8 °F 29.92 in ESE 1.0 mph 1.0 mph 83% 0.00 in
05:31 72.1 °F 66.7 °F 29.92 in Calm   1.0 mph 83% 0.00 in
05:32 72.1 °F 66.7 °F 29.92 in Calm   1.0 mph 83% 0.00 in
05:34 71.9 °F 66.5 °F 29.92 in Calm   1.0 mph 83% 0.00 in
05:37 71.7 °F 66.6 °F 29.92 in Calm     84% 0.00 in
05:42 71.6 °F 66.5 °F 29.92 in Calm     84% 0.00 in
05:43 71.6 °F 66.5 °F 29.92 in Calm     84% 0.00 in
05:48 71.6 °F 66.5 °F 29.92 in Calm     84% 0.00 in
05:53 71.6 °F 66.5 °F 29.92 in Calm     84% 0.00 in
05:58 71.2 °F 66.5 °F 29.92 in ESE 1.0 mph 2.0 mph 85% 0.00 in
06:03 71.0 °F 66.3 °F 29.92 in Calm     85% 0.00 in
06:08 70.6 °F 66.2 °F 29.93 in Calm     86% 0.00 in
06:13 70.5 °F 66.1 °F 29.93 in Calm     86% 0.00 in
06:18 70.2 °F 66.2 °F 29.93 in Calm     87% 0.00 in
06:23 70.2 °F 66.2 °F 29.93 in ESE 1.0 mph 1.0 mph 87% 0.00 in
06:24 70.3 °F 66.2 °F 29.93 in Calm   1.0 mph 87% 0.00 in
06:29 70.5 °F 66.4 °F 29.94 in Calm     87% 0.00 in
06:34 70.5 °F 66.4 °F 29.94 in Calm     87% 0.00 in
06:36 70.5 °F 66.4 °F 29.94 in Calm     87% 0.00 in
06:39 70.5 °F 66.4 °F 29.94 in ENE 1.0 mph 1.0 mph 87% 0.00 in
06:44 70.5 °F 66.1 °F 29.94 in East 2.0 mph 2.0 mph 86% 0.00 in
06:45 70.5 °F 66.1 °F 29.94 in East 1.0 mph 2.0 mph 86% 0.00 in
06:49 70.7 °F 66.3 °F 29.95 in East 2.0 mph 2.0 mph 86% 0.00 in
06:50 70.7 °F 66.3 °F 29.95 in East 2.0 mph 2.0 mph 86% 0.00 in
06:55 70.8 °F 66.4 °F 29.95 in Calm   2.0 mph 86% 0.00 in
07:00 70.7 °F 66.3 °F 29.95 in East 1.0 mph 2.0 mph 86% 0.00 in
07:05 70.9 °F 66.5 °F 29.95 in East 4.0 mph 4.0 mph 86% 0.00 in
07:06 70.9 °F 66.5 °F 29.95 in East 3.0 mph 4.0 mph 86% 0.00 in
07:10 70.8 °F 66.7 °F 29.95 in ESE 2.0 mph 3.0 mph 87% 0.00 in
07:15 70.8 °F 66.7 °F 29.96 in East 1.0 mph 3.0 mph 87% 0.00 in
07:20 70.9 °F 66.8 °F 29.96 in East 2.0 mph 2.0 mph 87% 0.00 in
07:25 71.1 °F 67.0 °F 29.96 in ESE 1.0 mph 2.0 mph 87% 0.00 in
07:27 71.3 °F 66.9 °F 29.96 in ESE 1.0 mph 1.0 mph 86% 0.00 in
07:30 71.5 °F 67.1 °F 29.96 in Calm   2.0 mph 86% 0.00 in
07:32 71.6 °F 67.2 °F 29.96 in Calm   1.0 mph 86% 0.00 in
07:33 71.7 °F 67.3 °F 29.96 in Calm   1.0 mph 86% 0.00 in
07:35 71.9 °F 67.2 °F 29.97 in Calm     85% 0.00 in
07:37 72.0 °F 67.2 °F 29.97 in East 1.0 mph 1.0 mph 85% 0.00 in
07:38 72.1 °F 67.3 °F 29.97 in East 1.0 mph 1.0 mph 85% 0.00 in
07:40 72.3 °F 67.5 °F 29.97 in ESE 1.0 mph 1.0 mph 85% 0.00 in
07:43 72.6 °F 67.8 °F 29.97 in Calm   1.0 mph 85% 0.00 in
07:45 72.7 °F 67.6 °F 29.97 in ESE 3.0 mph 3.0 mph 84% 0.00 in
07:46 72.7 °F 67.6 °F 29.97 in ESE 2.0 mph 3.0 mph 84% 0.00 in
07:51 72.9 °F 67.4 °F 29.97 in ESE 2.0 mph 3.0 mph 83% 0.00 in
07:56 73.2 °F 68.1 °F 29.97 in East 2.0 mph 3.0 mph 84% 0.00 in
08:01 73.5 °F 68.0 °F 29.97 in East 3.0 mph 3.0 mph 83% 0.00 in
08:06 73.7 °F 67.5 °F 29.97 in East 3.0 mph 3.0 mph 81% 0.00 in
08:11 73.8 °F 68.0 °F 29.97 in East 4.0 mph 4.0 mph 82% 0.00 in
08:16 74.1 °F 67.9 °F 29.97 in SE 2.0 mph 4.0 mph 81% 0.00 in
08:21 74.4 °F 67.8 °F 29.97 in ESE 3.0 mph 4.0 mph 80% 0.00 in
08:26 74.6 °F 68.0 °F 29.98 in East 3.0 mph 5.0 mph 80% 0.00 in
08:27 74.7 °F 68.1 °F 29.98 in ESE 4.0 mph 5.0 mph 80% 0.00 in
08:32 74.8 °F 67.9 °F 29.98 in SE 4.0 mph 6.0 mph 79% 0.00 in
08:37 74.9 °F 67.9 °F 29.98 in ESE 5.0 mph 6.0 mph 79% 0.00 in
08:38 74.9 °F 67.6 °F 29.98 in ESE 4.0 mph 6.0 mph 78% 0.00 in
08:43 75.3 °F 68.0 °F 29.98 in ESE 4.0 mph 7.0 mph 78% 0.00 in
08:48 75.7 °F 68.4 °F 29.98 in ESE 4.0 mph 5.0 mph 78% 0.00 in
08:53 75.8 °F 68.8 °F 29.98 in East 2.0 mph 5.0 mph 79% 0.00 in
08:58 76.1 °F 68.8 °F 29.98 in ESE 4.0 mph 6.0 mph 78% 0.00 in
08:59 76.1 °F 68.8 °F 29.98 in ESE 4.0 mph 6.0 mph 78% 0.00 in
09:04 76.4 °F 68.7 °F 29.98 in ESE 4.0 mph 5.0 mph 77% 0.00 in
09:09 76.7 °F 68.9 °F 29.99 in ESE 4.0 mph 5.0 mph 77% 0.00 in
09:14 77.1 °F 69.0 °F 29.99 in ESE 3.0 mph 4.0 mph 76% 0.00 in
09:19 77.4 °F 69.2 °F 29.99 in ESE 3.0 mph 4.0 mph 76% 0.00 in
09:24 78.1 °F 69.9 °F 29.99 in ENE 3.0 mph 4.0 mph 76% 0.00 in
09:26 78.2 °F 69.6 °F 29.99 in ESE 3.0 mph 5.0 mph 75% 0.00 in
09:31 78.8 °F 70.6 °F 29.99 in ESE 1.0 mph 3.0 mph 76% 0.00 in
09:32 78.8 °F 70.6 °F 29.99 in East 2.0 mph 3.0 mph 76% 0.00 in
09:37 79.0 °F 70.0 °F 29.99 in ESE 5.0 mph 5.0 mph 74% 0.00 in
09:39 79.0 °F 70.0 °F 29.99 in ESE 3.0 mph 5.0 mph 74% 0.00 in
09:42 79.4 °F 70.4 °F 29.99 in SE 1.0 mph 3.0 mph 74% 0.00 in
09:47 79.9 °F 70.9 °F 29.99 in East 3.0 mph 4.0 mph 74% 0.00 in
09:52 80.2 °F 70.8 °F 29.99 in South 2.0 mph 3.0 mph 73% 0.00 in
09:57 80.9 °F 71.4 °F 29.99 in SE 3.0 mph 4.0 mph 73% 0.00 in
10:02 81.0 °F 71.5 °F 29.99 in SE 3.0 mph 5.0 mph 73% 0.00 in
10:07 81.2 °F 71.3 °F 29.99 in SE 3.0 mph 6.0 mph 72% 0.00 in
10:08 81.3 °F 72.2 °F 29.99 in SE 4.0 mph 6.0 mph 74% 0.00 in
10:13 81.5 °F 72.0 °F 29.99 in ESE 5.0 mph 6.0 mph 73% 0.00 in
10:14 81.5 °F 71.6 °F 29.99 in ESE 4.0 mph 6.0 mph 72% 0.00 in
10:18 81.5 °F 72.0 °F 29.99 in SE 2.0 mph 5.0 mph 73% 0.00 in
10:19 81.6 °F 71.7 °F 29.99 in ESE 3.0 mph 5.0 mph 72% 0.00 in
10:24 81.7 °F 71.8 °F 29.99 in South 1.0 mph 6.0 mph 72% 0.00 in
10:29 82.3 °F 72.0 °F 29.99 in ESE 2.0 mph 4.0 mph 71% 0.00 in
10:34 82.7 °F 72.3 °F 29.99 in SSE 2.0 mph 4.0 mph 71% 0.00 in
10:35 82.7 °F 72.3 °F 29.99 in WSW 4.0 mph 4.0 mph 71% 0.00 in
10:40 83.3 °F 72.5 °F 29.99 in ESE 4.0 mph 4.0 mph 70% 0.00 in
10:45 83.6 °F 71.9 °F 29.99 in ESE 2.0 mph 3.0 mph 68% 0.00 in
10:50 84.3 °F 71.7 °F 29.99 in SSW 6.0 mph 6.0 mph 66% 0.00 in
10:55 84.5 °F 72.8 °F 29.99 in SSE 6.0 mph 6.0 mph 68% 0.00 in
11:00 84.5 °F 72.8 °F 29.99 in ESE 4.0 mph 7.0 mph 68% 0.00 in
11:05 84.6 °F 72.0 °F 29.99 in SE 8.0 mph 8.0 mph 66% 0.00 in
11:10 84.5 °F 71.9 °F 29.99 in SE 2.0 mph 6.0 mph 66% 0.00 in
11:11 84.5 °F 71.9 °F 29.99 in East 6.0 mph 6.0 mph 66% 0.00 in
11:16 84.5 °F 71.9 °F 29.99 in SSE 4.0 mph 7.0 mph 66% 0.00 in
11:21 85.3 °F 72.2 °F 29.99 in SSE 7.0 mph 7.0 mph 65% 0.00 in
11:22 85.4 °F 72.3 °F 29.99 in South 3.0 mph 7.0 mph 65% 0.00 in
11:26 85.7 °F 72.6 °F 29.99 in SSW 1.0 mph 5.0 mph 65% 0.00 in
11:27 85.7 °F 73.0 °F 29.99 in SW 3.0 mph 4.0 mph 66% 0.00 in
11:31 85.7 °F 72.1 °F 29.99 in East 4.0 mph 7.0 mph 64% 0.00 in
11:32 85.7 °F 73.0 °F 29.99 in SSE 5.0 mph 6.0 mph 66% 0.00 in
11:37 86.1 °F 73.4 °F 29.99 in East 5.0 mph 6.0 mph 66% 0.00 in
11:39 86.1 °F 72.5 °F 29.99 in East 6.0 mph 7.0 mph 64% 0.00 in
11:42 86.0 °F 71.9 °F 29.99 in SE 3.0 mph 8.0 mph 63% 0.00 in
11:44 86.0 °F 71.9 °F 29.99 in SE 5.0 mph 6.0 mph 63% 0.00 in
11:45 86.0 °F 72.4 °F 29.99 in SE 5.0 mph 6.0 mph 64% 0.00 in
11:47 86.3 °F 72.2 °F 29.99 in SSW 6.0 mph 8.0 mph 63% 0.00 in
11:52 86.6 °F 73.0 °F 29.99 in SE 4.0 mph 6.0 mph 64% 0.00 in
11:57 87.0 °F 72.4 °F 29.99 in SSE 7.0 mph 9.0 mph 62% 0.00 in
12:02 87.2 °F 71.6 °F 29.99 in SSW 3.0 mph 7.0 mph 60% 0.00 in
12:04 87.3 °F 71.7 °F 29.99 in SE 3.0 mph 4.0 mph 60% 0.00 in
12:09 87.5 °F 73.4 °F 29.99 in ESE 6.0 mph 7.0 mph 63% 0.00 in
12:14 87.3 °F 74.1 °F 29.98 in SSE 5.0 mph 6.0 mph 65% 0.00 in
12:19 87.6 °F 73.0 °F 29.98 in ESE 5.0 mph 7.0 mph 62% 0.00 in
12:20 87.6 °F 73.5 °F 29.98 in SE 3.0 mph 7.0 mph 63% 0.00 in
12:24 87.7 °F 71.1 °F 29.98 in SE 6.0 mph 10.0 mph 58% 0.00 in
12:25 87.8 °F 72.7 °F 29.98 in SE 5.0 mph 10.0 mph 61% 0.00 in
12:30 87.5 °F 71.4 °F 29.98 in South 4.0 mph 12.0 mph 59% 0.00 in
12:32 87.8 °F 73.2 °F 29.98 in SW 4.0 mph 12.0 mph 62% 0.00 in
12:34 88.1 °F 71.5 °F 29.98 in SSE 4.0 mph 10.0 mph 58% 0.00 in
12:36 88.1 °F 71.5 °F 29.98 in SSE 6.0 mph 10.0 mph 58% 0.00 in
12:38 88.2 °F 72.1 °F 29.98 in South 7.0 mph 10.0 mph 59% 0.00 in
12:41 88.3 °F 72.2 °F 29.98 in SE 6.0 mph 12.0 mph 59% 0.00 in
12:43 88.3 °F 72.7 °F 29.98 in SSE 4.0 mph 7.0 mph 60% 0.00 in
12:47 88.6 °F 71.9 °F 29.98 in SSE 7.0 mph 9.0 mph 58% 0.00 in
12:48 88.4 °F 70.7 °F 29.98 in South 3.0 mph 9.0 mph 56% 0.00 in
12:53 88.3 °F 69.6 °F 29.98 in SW 7.0 mph 10.0 mph 54% 0.00 in
12:58 89.0 °F 71.3 °F 29.98 in SW 5.0 mph 10.0 mph 56% 0.00 in
12:59 89.1 °F 70.8 °F 29.98 in SW 4.0 mph 10.0 mph 55% 0.00 in
13:04 89.0 °F 69.1 °F 29.98 in SSW 6.0 mph 7.0 mph 52% 0.00 in
13:09 89.2 °F 70.9 °F 29.98 in South 4.0 mph 6.0 mph 55% 0.00 in
13:14 89.4 °F 72.2 °F 29.98 in SW 4.0 mph 10.0 mph 57% 0.00 in
13:19 89.2 °F 68.7 °F 29.98 in South 4.0 mph 11.0 mph 51% 0.00 in
13:20 89.3 °F 68.8 °F 29.98 in SW 7.0 mph 11.0 mph 51% 0.00 in
13:24 89.0 °F 69.1 °F 29.98 in SW 11.0 mph 13.0 mph 52% 0.00 in
13:25 88.9 °F 69.6 °F 29.98 in SW 7.0 mph 13.0 mph 53% 0.00 in
13:29 89.2 °F 71.5 °F 29.97 in SSE 6.0 mph 10.0 mph 56% 0.00 in
13:30 89.3 °F 70.5 °F 29.97 in South 6.0 mph 10.0 mph 54% 0.00 in
13:34 89.5 °F 70.1 °F 29.97 in SW 4.0 mph 10.0 mph 53% 0.00 in
13:35 89.4 °F 70.0 °F 29.97 in SW 7.0 mph 10.0 mph 53% 0.00 in
13:36 89.4 °F 70.0 °F 29.97 in SW 6.0 mph 9.0 mph 53% 0.00 in
13:38 89.2 °F 69.8 °F 29.97 in SSW 6.0 mph 9.0 mph 53% 0.00 in
13:39 89.0 °F 69.7 °F 29.97 in SW 10.0 mph 11.0 mph 53% 0.00 in
13:43 88.8 °F 70.0 °F 29.97 in SW 7.0 mph 10.0 mph 54% 0.00 in
13:44 88.9 °F 70.1 °F 29.97 in SSE 3.0 mph 10.0 mph 54% 0.00 in
13:45 89.0 °F 70.8 °F 29.97 in SE 4.0 mph 10.0 mph 55% 0.00 in
13:48 89.1 °F 69.8 °F 29.97 in WSW 8.0 mph 9.0 mph 53% 0.00 in
13:53 89.3 °F 71.6 °F 29.97 in SSE 4.0 mph 10.0 mph 56% 0.00 in
13:58 89.7 °F 70.9 °F 29.97 in SW 5.0 mph 7.0 mph 54% 0.00 in
14:03 89.8 °F 70.9 °F 29.96 in SE 5.0 mph 11.0 mph 54% 0.00 in
14:08 89.3 °F 70.5 °F 29.96 in WSW 4.0 mph 8.0 mph 54% 0.00 in
14:13 89.5 °F 70.7 °F 29.96 in SSW 5.0 mph 7.0 mph 54% 0.00 in
14:19 90.1 °F 71.2 °F 29.96 in South 1.0 mph 7.0 mph 54% 0.00 in
14:23 89.5 °F 69.0 °F 29.96 in WSW 9.0 mph 12.0 mph 51% 0.00 in
14:24 89.3 °F 68.8 °F 29.95 in SW 7.0 mph 12.0 mph 51% 0.00 in
14:29 88.5 °F 69.2 °F 29.95 in SSW 3.0 mph 6.0 mph 53% 0.00 in
14:30 88.6 °F 69.8 °F 29.95 in SSW 4.0 mph 5.0 mph 54% 0.00 in
14:34 89.2 °F 70.9 °F 29.95 in South 5.0 mph 10.0 mph 55% 0.00 in
14:35 89.3 °F 69.4 °F 29.95 in SSW 5.0 mph 8.0 mph 52% 0.00 in
14:36 89.4 °F 69.5 °F 29.95 in SW 3.0 mph 8.0 mph 52% 0.00 in
14:37 89.3 °F 70.5 °F 29.95 in West 5.0 mph 8.0 mph 54% 0.00 in
14:41 88.9 °F 69.6 °F 29.95 in West 9.0 mph 9.0 mph 53% 0.00 in
14:46 89.2 °F 68.7 °F 29.95 in West 5.0 mph 9.0 mph 51% 0.00 in
14:51 88.4 °F 68.6 °F 29.95 in SW 6.0 mph 9.0 mph 52% 0.00 in
14:56 88.3 °F 69.6 °F 29.95 in WSW 5.0 mph 6.0 mph 54% 0.00 in
14:57 88.7 °F 70.5 °F 29.95 in SSW 3.0 mph 8.0 mph 55% 0.00 in
15:02 89.8 °F 69.8 °F 29.94 in SSW 4.0 mph 6.0 mph 52% 0.00 in
15:07 90.0 °F 70.0 °F 29.94 in SSW 6.0 mph 6.0 mph 52% 0.00 in
15:12 89.7 °F 68.6 °F 29.94 in West 4.0 mph 8.0 mph 50% 0.00 in
15:18 89.4 °F 68.3 °F 29.94 in SSW 5.0 mph 8.0 mph 50% 0.00 in
15:23 90.2 °F 69.6 °F 29.94 in SSE 5.0 mph 7.0 mph 51% 0.00 in
15:24 90.4 °F 69.2 °F 29.93 in SSE 8.0 mph 9.0 mph 50% 0.00 in
15:28 90.6 °F 70.6 °F 29.93 in SW 3.0 mph 5.0 mph 52% 0.00 in
15:29 90.7 °F 68.3 °F 29.93 in SW 6.0 mph 6.0 mph 48% 0.00 in
15:33 90.9 °F 67.9 °F 29.93 in SW 7.0 mph 8.0 mph 47% 0.00 in
15:35 90.9 °F 67.9 °F 29.93 in South 7.0 mph 9.0 mph 47% 0.00 in
15:36 91.0 °F 69.2 °F 29.93 in South 5.0 mph 9.0 mph 49% 0.00 in
15:40 91.1 °F 68.1 °F 29.93 in WSW 2.0 mph 4.0 mph 47% 0.00 in
15:41 91.2 °F 69.4 °F 29.93 in SW 5.0 mph 5.0 mph 49% 0.00 in
15:45 91.1 °F 68.1 °F 29.93 in SSW 4.0 mph 6.0 mph 47% 0.00 in
15:50 90.8 °F 68.4 °F 29.93 in WSW 4.0 mph 10.0 mph 48% 0.00 in
15:55 90.4 °F 68.1 °F 29.92 in SW 11.0 mph 11.0 mph 48% 0.00 in
16:00 90.3 °F 68.6 °F 29.92 in SW 5.0 mph 8.0 mph 49% 0.00 in
16:01 90.3 °F 68.6 °F 29.92 in SW 3.0 mph 8.0 mph 49% 0.00 in
16:06 90.6 °F 67.0 °F 29.92 in South 5.0 mph 10.0 mph 46% 0.00 in
16:11 90.4 °F 66.8 °F 29.92 in SW 8.0 mph 9.0 mph 46% 0.00 in
16:16 89.9 °F 67.0 °F 29.92 in WSW 4.0 mph 8.0 mph 47% 0.00 in
16:21 90.4 °F 68.7 °F 29.91 in SW 4.0 mph 6.0 mph 49% 0.00 in
16:26 90.3 °F 69.2 °F 29.91 in WSW 4.0 mph 8.0 mph 50% 0.00 in
16:31 89.9 °F 68.8 °F 29.91 in West 4.0 mph 6.0 mph 50% 0.00 in
16:32 89.9 °F 68.8 °F 29.91 in WSW 5.0 mph 6.0 mph 50% 0.00 in
16:37 90.3 °F 68.6 °F 29.91 in SSW 3.0 mph 5.0 mph 49% 0.00 in
16:38 90.3 °F 68.6 °F 29.91 in South 5.0 mph 5.0 mph 49% 0.00 in
16:42 90.0 °F 67.1 °F 29.91 in SW 4.0 mph 5.0 mph 47% 0.00 in
16:43 90.1 °F 68.4 °F 29.91 in SW 3.0 mph 4.0 mph 49% 0.00 in
16:48 90.5 °F 68.8 °F 29.91 in SSW 3.0 mph 6.0 mph 49% 0.00 in
16:53 91.0 °F 66.7 °F 29.91 in West 4.0 mph 6.0 mph 45% 0.00 in
16:58 90.4 °F 66.8 °F 29.91 in SW 3.0 mph 7.0 mph 46% 0.00 in
17:03 90.5 °F 66.9 °F 29.91 in SW 4.0 mph 7.0 mph 46% 0.00 in
17:08 90.0 °F 67.7 °F 29.91 in SSE 4.0 mph 8.0 mph 48% 0.00 in
17:13 89.6 °F 66.7 °F 29.91 in SW 2.0 mph 5.0 mph 47% 0.00 in
17:18 90.2 °F 67.3 °F 29.91 in SW 2.0 mph 3.0 mph 47% 0.00 in
17:19 90.3 °F 67.3 °F 29.91 in SW 2.0 mph 4.0 mph 47% 0.00 in
17:24 90.8 °F 66.6 °F 29.91 in SSW 3.0 mph 5.0 mph 45% 0.00 in
17:26 91.0 °F 67.4 °F 29.91 in NW 1.0 mph 5.0 mph 46% 0.00 in
17:29 91.3 °F 66.3 °F 29.90 in SW 1.0 mph 4.0 mph 44% 0.00 in
17:30 91.4 °F 68.3 °F 29.90 in SSW 3.0 mph 4.0 mph 47% 0.00 in
17:34 91.4 °F 69.0 °F 29.91 in WSW 3.0 mph 7.0 mph 48% 0.00 in
17:35 91.4 °F 68.3 °F 29.91 in SSW 2.0 mph 4.0 mph 47% 0.00 in
17:36 91.4 °F 68.3 °F 29.90 in West 5.0 mph 7.0 mph 47% 0.00 in
17:40 91.2 °F 67.6 °F 29.91 in WSW 3.0 mph 8.0 mph 46% 0.00 in
17:41 91.2 °F 66.9 °F 29.91 in WSW 4.0 mph 7.0 mph 45% 0.00 in
17:46 90.7 °F 67.1 °F 29.91 in West 2.0 mph 7.0 mph 46% 0.00 in
17:47 90.7 °F 66.5 °F 29.91 in WSW 5.0 mph 7.0 mph 45% 0.00 in
17:51 90.8 °F 66.6 °F 29.91 in WSW 4.0 mph 6.0 mph 45% 0.00 in
17:56 90.4 °F 67.4 °F 29.91 in SSW 1.0 mph 6.0 mph 47% 0.00 in
18:02 90.3 °F 67.3 °F 29.91 in Calm   1.0 mph 47% 0.00 in
18:07 90.2 °F 67.3 °F 29.91 in SSW 2.0 mph 3.0 mph 47% 0.00 in
18:12 90.1 °F 67.2 °F 29.91 in SSE 2.0 mph 3.0 mph 47% 0.00 in
18:17 90.5 °F 66.9 °F 29.91 in WSW 2.0 mph 6.0 mph 46% 0.00 in
18:22 90.7 °F 65.8 °F 29.90 in ENE 1.0 mph 3.0 mph 44% 0.00 in
18:27 91.2 °F 66.9 °F 29.90 in South 3.0 mph 5.0 mph 45% 0.00 in
18:28 91.2 °F 68.2 °F 29.90 in South 2.0 mph 5.0 mph 47% 0.00 in
18:33 91.7 °F 68.6 °F 29.90 in South 1.0 mph 1.0 mph 47% 0.00 in
18:34 91.9 °F 66.2 °F 29.90 in SSE 1.0 mph 2.0 mph 43% 0.00 in
18:37 92.4 °F 67.3 °F 29.90 in Calm   1.0 mph 44% 0.00 in
18:38 92.6 °F 67.5 °F 29.90 in Calm   1.0 mph 44% 0.00 in
18:39 92.6 °F 69.4 °F 29.90 in Calm   1.0 mph 47% 0.00 in
18:44 92.5 °F 66.8 °F 29.90 in SSE 2.0 mph 2.0 mph 43% 0.00 in
18:45 92.5 °F 68.7 °F 29.90 in SSE 1.0 mph 2.0 mph 46% 0.00 in
18:50 92.6 °F 69.4 °F 29.90 in SE 1.0 mph 1.0 mph 47% 0.00 in
18:51 92.6 °F 68.2 °F 29.90 in Calm   1.0 mph 45% 0.00 in
18:56 92.6 °F 70.1 °F 29.90 in WNW 1.0 mph 2.0 mph 48% 0.00 in
19:01 91.5 °F 69.1 °F 29.90 in WNW 1.0 mph 2.0 mph 48% 0.00 in
19:02 91.4 °F 70.7 °F 29.90 in WNW 1.0 mph 2.0 mph 51% 0.00 in
19:07 91.6 °F 68.5 °F 29.90 in WNW 1.0 mph 1.0 mph 47% 0.00 in
19:12 91.3 °F 67.6 °F 29.90 in SSE 2.0 mph 4.0 mph 46% 0.00 in
19:13 91.3 °F 67.6 °F 29.90 in SSE 1.0 mph 3.0 mph 46% 0.00 in
19:18 91.3 °F 67.6 °F 29.90 in SSW 2.0 mph 2.0 mph 46% 0.00 in
19:23 91.2 °F 68.2 °F 29.90 in SSE 1.0 mph 2.0 mph 47% 0.00 in
19:27 91.2 °F 68.2 °F 29.90 in SW 1.0 mph 1.0 mph 47% 0.00 in
19:28 91.1 °F 68.1 °F 29.90 in SW 2.0 mph 2.0 mph 47% 0.00 in
19:29 91.1 °F 67.5 °F 29.90 in SW 3.0 mph 3.0 mph 46% 0.00 in
19:32 90.6 °F 68.8 °F 29.90 in SW 1.0 mph 3.0 mph 49% 0.00 in
19:34 90.5 °F 68.2 °F 29.90 in SW 1.0 mph 3.0 mph 48% 0.00 in
19:35 90.5 °F 68.2 °F 29.90 in SW 1.0 mph 3.0 mph 48% 0.00 in
19:37 90.3 °F 68.0 °F 29.90 in SW 1.0 mph 2.0 mph 48% 0.00 in
19:38 90.3 °F 68.0 °F 29.90 in Calm   2.0 mph 48% 0.00 in
19:43 90.3 °F 68.0 °F 29.91 in Calm   1.0 mph 48% 0.00 in
19:48 90.6 °F 70.6 °F 29.91 in Calm   1.0 mph 52% 0.00 in
19:53 90.4 °F 70.9 °F 29.91 in Calm     53% 0.00 in
19:58 89.8 °F 72.6 °F 29.91 in Calm     57% 0.00 in
20:03 90.1 °F 71.8 °F 29.91 in Calm     55% 0.00 in
20:08 89.4 °F 72.2 °F 29.91 in Calm     57% 0.00 in
20:13 89.2 °F 72.5 °F 29.91 in Calm     58% 0.00 in
20:18 88.5 °F 71.3 °F 29.91 in Calm     57% 0.00 in
20:23 87.6 °F 73.5 °F 29.91 in Calm     63% 0.00 in
20:29 86.6 °F 71.6 °F 29.92 in Calm     61% 0.00 in
20:30 86.5 °F 72.9 °F 29.92 in Calm     64% 0.00 in
20:34 85.9 °F 72.3 °F 29.91 in Calm   1.0 mph 64% 0.00 in
20:39 85.0 °F 72.4 °F 29.92 in Calm     66% 0.00 in
20:40 84.9 °F 72.3 °F 29.92 in Calm     66% 0.00 in
20:45 84.4 °F 72.7 °F 29.92 in Calm     68% 0.00 in
20:50 83.7 °F 72.5 °F 29.92 in Calm     69% 0.00 in
20:55 83.0 °F 71.8 °F 29.92 in Calm     69% 0.00 in
21:00 82.6 °F 72.7 °F 29.92 in Calm     72% 0.00 in
21:02 82.4 °F 72.1 °F 29.92 in Calm     71% 0.00 in
21:05 82.1 °F 71.8 °F 29.92 in Calm     71% 0.00 in
21:10 81.6 °F 71.7 °F 29.92 in Calm     72% 0.00 in
21:15 81.1 °F 72.4 °F 29.92 in Calm     75% 0.00 in
21:20 80.6 °F 71.9 °F 29.92 in Calm     75% 0.00 in
21:21 80.6 °F 71.9 °F 29.92 in Calm     75% 0.00 in
21:22 80.5 °F 71.8 °F 29.92 in Calm     75% 0.00 in
21:26 80.1 °F 71.9 °F 29.92 in Calm     76% 0.00 in
21:28 79.8 °F 71.6 °F 29.92 in Calm     76% 0.00 in
21:31 79.7 °F 71.9 °F 29.92 in Calm     77% 0.00 in
21:32 79.7 °F 71.9 °F 29.92 in Calm     77% 0.00 in
21:36 79.5 °F 72.0 °F 29.92 in Calm     78% 0.00 in
21:37 79.4 °F 71.9 °F 29.92 in Calm     78% 0.00 in
21:38 79.4 °F 71.9 °F 29.92 in Calm     78% 0.00 in
21:42 79.3 °F 71.8 °F 29.92 in Calm     78% 0.00 in
21:43 79.2 °F 71.8 °F 29.92 in Calm     78% 0.00 in
21:47 78.9 °F 71.8 °F 29.92 in Calm     79% 0.00 in
21:52 78.6 °F 71.2 °F 29.93 in Calm     78% 0.00 in
21:57 78.5 °F 70.7 °F 29.93 in Calm     77% 0.00 in
22:02 78.4 °F 71.3 °F 29.93 in Calm     79% 0.00 in
22:07 78.3 °F 71.3 °F 29.93 in Calm     79% 0.00 in
22:12 78.4 °F 71.3 °F 29.93 in Calm     79% 0.00 in
22:17 78.1 °F 72.5 °F 29.93 in Calm     83% 0.00 in
22:22 77.7 °F 71.4 °F 29.94 in Calm     81% 0.00 in
22:27 77.9 °F 70.9 °F 29.94 in Calm     79% 0.00 in
22:28 77.9 °F 70.9 °F 29.94 in Calm     79% 0.00 in
22:33 77.9 °F 70.9 °F 29.94 in Calm     79% 0.00 in
22:34 77.8 °F 70.8 °F 29.94 in Calm     79% 0.00 in
22:39 77.4 °F 70.4 °F 29.94 in Calm     79% 0.00 in
22:44 77.0 °F 70.7 °F 29.95 in Calm     81% 0.00 in
22:49 77.0 °F 70.7 °F 29.95 in Calm     81% 0.00 in
22:54 76.7 °F 70.4 °F 29.95 in Calm     81% 0.00 in
22:59 76.4 °F 70.5 °F 29.95 in Calm     82% 0.00 in
23:04 76.2 °F 70.7 °F 29.95 in Calm     83% 0.00 in
23:09 76.6 °F 70.7 °F 29.95 in Calm     82% 0.00 in
23:10 76.6 °F 70.7 °F 29.95 in Calm     82% 0.00 in
23:15 76.8 °F 70.5 °F 29.94 in Calm     81% 0.00 in
23:20 76.7 °F 70.4 °F 29.94 in Calm     81% 0.00 in
23:25 76.3 °F 70.4 °F 29.94 in Calm     82% 0.00 in
23:26 76.3 °F 70.4 °F 29.94 in Calm     82% 0.00 in
23:30 76.1 °F 70.2 °F 29.94 in Calm     82% 0.00 in
23:31 76.1 °F 70.2 °F 29.94 in Calm     82% 0.00 in
23:33 76.0 °F 70.1 °F 29.94 in Calm     82% 0.00 in
23:35 75.9 °F 70.0 °F 29.94 in Calm     82% 0.00 in
23:38 75.9 °F 70.0 °F 29.94 in Calm     82% 0.00 in
23:41 76.0 °F 70.1 °F 29.94 in Calm     82% 0.00 in
23:46 75.9 °F 70.0 °F 29.94 in Calm     82% 0.00 in
23:51 75.8 °F 69.9 °F 29.94 in Calm     82% 0.00 in
23:56 75.9 °F 70.0 °F 29.94 in Calm     82% 0.00 in
Compliments of Weather Underground